Location: Chein
(43.0187°N, 0.8838°E)
Time: 14:47:27
(UTC+00:00)

Daily predictions for brighter satellites

Satellite Brightness Start Highest point End
(mag) Time Altitude Azimuth Time Altitude Azimuth Time Altitude Azimuth
SL-16 R/B 3.4 18:49:30 10° SW 18:54:58 49° WNW 19:00:28 10° NNE
ADEOS Rocket 3.4 18:49:10 10° N 18:55:36 73° WNW 19:01:22 10° SSW
STARLINK-1128 3.8 18:51:36 10° WNW 18:55:44 74° SW 18:59:52 10° SE
CZ-2D R/B 4.4 18:54:56 10° S 18:58:38 48° W 19:02:20 10° NNW
CZ-2C R/B 4.1 18:56:19 10° ENE 18:59:06 14° E 19:01:53 10° ESE
NOSS 3-3 (A) 3.9 18:53:52 10° SSW 18:59:34 68° ESE 19:06:00 10° NE
NOSS 3-3 (C) 3.9 18:53:59 10° SSW 18:59:41 67° ESE 19:06:06 10° NE
Cosmos 2251 Rocket 3.6 18:55:23 10° S 19:00:40 64° ESE 19:06:01 10° NNE
STARLINK-1113 3.9 18:56:37 10° WNW 19:00:43 68° SW 19:04:50 10° SE
Cosmos 1726 3.0 18:57:54 10° SSE 19:01:08 28° E 19:04:22 10° NNE
ARGOS 3.6 18:58:32 10° SE 19:03:35 43° ENE 19:08:39 10° N
YAOGAN 1 4.0 19:01:14 10° S 19:05:19 41° W 19:09:26 10° NNW
STARLINK-1119 4.0 19:01:35 10° WNW 19:05:40 62° SW 19:09:45 10° SE
ISS -3.6 19:03:28 10° WNW 19:06:50 73° SW 19:10:10 10° SE
SL-14 R/B 4.4 19:03:07 10° NNW 19:07:02 49° W 19:10:52 10° SSW
SJ-6B 3.7 19:03:24 10° SE 19:07:04 32° ENE 19:10:47 10° N
Cosmos 2184 Rocket 4.5 19:01:19 10° N 19:07:13 40° ENE 19:13:01 10° SE
BREEZE M DEB (TANK) 4.1 19:07:30 10° SE 19:09:04 13° ESE 19:11:14 10° E
Meteor 2-10 4.4 19:04:43 10° SSE 19:09:51 46° E 19:15:11 10° NNE
STARLINK-1114 4.1 19:06:34 10° WNW 19:10:38 56° SW 19:14:41 10° SE
USA 186 2.2 19:08:49 10° SSE 19:12:01 43° ENE 19:15:07 10° N
Cosmos 1626 Rocket 3.8 19:08:45 10° NNW 19:13:08 73° W 19:17:26 10° S
STARLINK-1130 (DARKSAT) 4.3 19:11:35 10° WNW 19:15:37 51° SW 19:19:38 10° SE
Cosmos 1603 3.6 19:11:55 10° SSW 19:17:32 75° ESE 19:23:09 10° NNE
FREGAT/IRIS 2.5 19:16:15 10° SSE 19:18:55 51° ENE 19:21:34 10° N
IRIDIUM 104 4.4 19:15:14 10° N 19:20:23 58° E 19:25:31 10° SSE
STARLINK-1084 4.4 19:16:36 10° WNW 19:20:35 47° SW 19:24:33 10° SSE
Ariane Rocket 3.0 19:15:38 10° SSE 19:20:42 83° ENE 19:25:48 10° NNW
Cosmos 1758 4.2 19:16:59 10° SSW 19:21:00 55° W 19:25:02 10° N
Cosmos 1602 Rocket 3.8 19:19:22 10° NNW 19:23:48 73° W 19:28:10 10° S
Resurs 01 Rocket 3.1 19:21:42 14° E 19:23:56 20° ENE 19:27:05 10° NNE
ATLAS 2AS CENTAUR R/B 3.5 19:17:12 10° NNW 19:24:25 42° NE 19:29:59 15° ESE
MOS 1 4.3 19:19:31 10° SSE 19:25:07 69° ENE 19:30:46 10° N
Meteor 1-21 Rocket 4.1 19:20:42 10° N 19:26:17 81° E 19:31:49 10° SSE
USA 234 3.9 19:20:58 10° ENE 19:26:39 31° SE 19:32:18 10° S
Meteor 1-16 Rocket 4.2 19:22:01 10° S 19:27:13 55° E 19:32:37 10° NNE
H-2A R/B 4.2 19:20:05 10° W 19:28:50 18° SW 19:32:24 10° S
IRIDIUM 114 4.3 19:24:21 10° N 19:29:34 70° E 19:34:45 10° S
Nadezhda 1 Rocket 4.4 19:24:14 10° SSE 19:30:12 43° E 19:36:09 10° NNE
GEOS 3 Rocket 4.4 19:25:19 10° SSE 19:30:16 50° WSW 19:35:20 10° NW
SL-4 R/B 1.4 19:26:59 10° SW 19:30:21 67° SE 19:33:43 10° ENE
Aureole 3 4.1 19:26:21 10° SSW 19:30:50 78° W 19:36:40 10° N
SeaSat 1 4.2 19:27:42 10° N 19:32:13 36° NW 19:36:42 10° WSW
Cosmos 1726 Rocket 4.1 19:28:38 10° SSE 19:32:41 38° E 19:36:47 10° NNE
Cosmos 1340 Rocket 4.0 19:32:48 18° SE 19:34:28 23° E 19:37:42 10° NE
ATLAS 5 CENTAUR R/B 2.5 19:32:29 10° SSE 19:35:46 24° ESE 19:39:18 10° ENE
IRIDIUM 103 4.3 19:33:30 10° N 19:38:45 85° E 19:43:58 10° S
Cosmos 1825 Rocket 3.5 19:36:30 10° N 19:40:52 65° E 19:45:02 11° SSE
Cosmos 1328 4.2 19:37:02 10° N 19:40:53 43° ENE 19:43:15 20° SE
SL-8 R/B 3.8 19:41:32 10° WNW 19:46:18 71° SSW 19:49:10 24° SE
Cosmos 1703 3.4 19:42:25 10° N 19:46:18 52° E 19:48:40 22° SSE
Cosmos 614 Rocket 4.1 19:41:55 10° S 19:46:59 53° ESE 19:52:04 10° NNE
SPOT 3 Rocket 3.6 19:45:41 14° SSE 19:50:12 65° ENE 19:55:22 10° N
Cosmos 1943 Rocket 3.3 19:45:24 10° NW 19:50:38 44° WSW 19:55:53 10° S
Abrixas rocket 3.7 19:48:11 10° WNW 19:50:47 27° N 19:52:19 17° NE
Cosmos 2369 Rocket 2.8 19:47:05 10° NNW 19:52:39 57° WSW 19:58:09 10° S
Cosmos 1758 Rocket 3.6 19:49:19 10° NNW 19:53:40 76° W 19:57:57 10° S
COSMOS 2455 3.9 19:48:35 10° NNW 19:53:52 30° NE 19:56:39 21° E
Cosmos 2074 Rocket 4.0 19:47:38 10° N 19:53:57 87° W 20:00:15 10° S
SL-24 R/B 3.7 19:50:58 10° NNE 19:55:06 71° E 19:58:50 10° S
Cosmos 1437 3.1 19:53:01 10° NNW 19:56:00 58° W 19:58:05 18° S
Cosmos 921 Rocket 4.1 19:53:07 10° N 19:56:38 25° ENE 19:57:12 25° ENE
Cosmos 1953 3.8 19:53:01 10° SSW 19:56:45 39° WNW 20:00:31 10° N
CZ-2C R/B 3.6 19:52:18 10° NNE 19:57:02 78° ESE 20:01:39 10° S
Cosmos 407 Rocket 3.5 19:53:19 10° S 19:58:21 56° ESE 20:03:22 10° NNE
Cosmos 2228 2.9 19:54:40 10° S 19:58:57 88° E 20:03:19 10° N
Cosmos 1953 Rocket 3.5 19:56:47 10° N 20:01:15 73° E 20:04:01 23° SSE
Cosmos 1606 Rocket 3.6 19:57:09 10° S 20:01:34 82° W 20:06:03 10° N
Cosmos 1908 3.1 19:58:19 10° S 20:02:09 81° E 20:06:03 10° N
Cosmos 1818 3.9 20:00:56 10° SW 20:06:20 67° NW 20:11:47 10° NNE
Cosmos 1610 Rocket 4.4 20:03:47 10° N 20:10:01 82° E 20:14:59 16° S
SL-08 RB Rocket 4.1 20:06:01 11° S 20:10:17 62° W 20:14:51 10° NNW
Cosmos 1943 4.2 20:10:17 10° SW 20:15:44 49° WNW 20:21:16 10° NNE
Meteor 1-11 4.2 20:10:19 10° N 20:16:06 81° ENE 20:19:34 25° SSE
CZ-2C R/B 4.3 20:13:20 10° SSW 20:17:53 36° W 20:22:18 10° NNW
APEX 4.2 20:12:24 10° NNW 20:18:59 73° ENE 20:21:10 38° SE
Cosmos 1461 3.6 20:14:40 10° NNW 20:19:02 45° NE 20:19:51 40° E
Cosmos 1954 Rocket 4.3 20:21:02 42° ESE 20:21:32 43° ESE 20:26:27 10° NNE
H-2A R/B 3.9 20:22:45 10° SSW 20:27:16 29° W 20:31:43 10° NW
Cosmos 1023 Rocket 4.3 20:25:00 10° SSW 20:30:11 81° ESE 20:35:21 10° NNE
Cosmos 1295 Rocket 4.4 20:24:18 10° N 20:30:38 86° E 20:34:10 28° S
Resurs 1-3 4.2 20:33:01 29° SSW 20:35:02 55° W 20:39:21 10° NNW
Cosmos 1656 Rocket 4.3 20:32:42 10° NW 20:38:09 51° WSW 20:41:04 26° S
CZ-2C R/B 2.8 20:34:45 10° N 20:39:55 70° WNW 20:45:04 10° SSW
STARLINK-60 4.2 20:38:07 10° WSW 20:40:40 42° WNW 20:40:40 42° WNW
NOSS 3-4 (A) 3.8 20:36:13 10° NW 20:43:19 84° WSW 20:46:22 41° SSE
NOSS 3-4 (C) 3.8 20:36:19 10° NW 20:43:25 84° WSW 20:46:27 41° SSE
Cosmos 2341 Rocket 3.9 20:37:59 10° N 20:44:24 82° E 20:46:40 43° SSE
Cosmos 2058 4.5 20:42:10 10° N 20:44:18 25° NNE 20:44:18 25° NNE
Terra 3.5 20:55:01 21° NE 20:55:01 21° NE 20:57:30 10° NNE
Cosmos 2058 Rocket 4.3 20:53:43 15° SW 20:57:09 41° WNW 21:01:27 10° N
Resurs 01 Rocket 2.6 20:59:15 38° SW 21:00:07 42° W 21:04:19 10° NNW
Cosmos 2218 Rocket 3.9 20:55:42 10° N 21:01:54 69° E 21:02:26 65° ESE
Cosmos 1980 Rocket 4.4 21:00:42 10° NNE 21:02:29 11° NE 21:03:10 11° NE
USA 245 4.1 21:08:37 74° S 21:09:08 84° WSW 21:15:23 10° NNW
USA 234 3.3 21:03:29 10° NE 21:10:01 78° NW 21:16:33 10° WSW
SL-4 R/B 3.8 21:07:10 10° WNW 21:09:22 25° NW 21:09:22 25° NW
Cosmos 1140 Rocket 4.5 21:06:43 10° SW 21:11:41 45° WNW 21:16:40 10° N
Spot 2 Rocket 3.5 21:11:44 72° WSW 21:11:47 72° WSW 21:16:55 10° NNW
Iridium 4 Rocket 4.3 21:08:19 10° N 21:10:42 32° N 21:10:42 32° N
Cosmos 2181 Rocket 4.0 21:12:14 50° SSW 21:13:59 79° W 21:20:14 10° N
ATLAS 2AS CENTAUR R/B 3.3 21:08:24 10° NW 21:15:33 50° WSW 21:17:27 40° SSW
ATLAS 5 CENTAUR R/B 2.9 21:16:11 10° WSW 21:20:06 38° NW 21:24:29 10° NNE
SL-8 Rocket 4.1 21:16:05 10° NNW 21:22:22 72° W 21:23:20 61° SSW
Cosmos 864 Rocket 4.3 21:19:38 10° N 21:25:53 87° W 21:25:58 86° SW
In-Cosmos 22 Rocket 4.4 21:26:29 10° NNW 21:32:08 71° W 21:32:08 71° W
Cosmos 2366 rocket 4.0 21:27:52 10° NNW 21:34:00 73° W 21:34:06 73° WSW
Meteor 2-12 Rocket 4.4 21:28:06 10° N 21:33:43 77° N 21:33:43 77° N
COSMOS 2455 3.3 21:34:14 10° NW 21:39:49 53° WSW 21:39:49 53° WSW
ERS-1 Rocket 3.9 21:47:39 45° NW 21:47:39 45° NW 21:51:12 10° NNW
ATLAS CENTAUR R/B 4.2 21:47:18 10° N 21:47:36 11° N 21:47:36 11° N
Cosmos 1697 Rocket 4.0 22:13:47 10° NNW 22:17:11 36° N 22:17:11 36° N
CZ-4C R/B 3.6 22:15:41 10° NNW 22:22:18 43° NE 22:22:18 43° NE
Terra 4.1 22:33:54 22° NW 22:33:54 22° NW 22:35:45 10° NNW
SL-16 R/B 4.4 22:29:43 10° N 22:32:21 16° NNE 22:32:21 16° NNE
Cosmos 2322 Rocket 4.5 22:39:39 10° N 22:42:09 16° NNE 22:42:09 16° NNE
Cosmos 1980 Rocket 3.9 22:42:11 10° NNW 22:44:56 29° N 22:44:56 29° N
Cosmos 2082 Rocket 4.3 23:15:18 22° NNE 23:15:18 22° NNE 23:17:13 10° NNE
Cosmos 2344 4.4 23:08:03 10° NW 23:17:52 80° NE 23:18:39 77° E
